When you browse on this site, cookies collect data to enhance your experience and personalize the content and advertising you see.
Visit our Privacy Policy to learn more. By continuing to use the site, you agree to this use of cookies and data.
  • En España
  • Lista de países
  • Para 7 días
  • Temperatura del agua
  • Mapa Satelital
  • El tiempo en el mapa
  • Informadores
  • user-avatar
    Iniciar sesión

    Tiempo cada hora Kruhle

    Hoy, 24 Mayo, Viernes

    Tiempo Temperatura Precipitaciones Viento Presión Humedad
    00:00 +15°C° 0.1 mm 2 mps 739 mmHg 89%
    01:00 +15°C° 0.1 mm 2 mps 739 mmHg 90%
    02:00 +15°C° 0 mm 2 mps 739 mmHg 92%
    03:00 +15°C° 0 mm 2 mps 739 mmHg 91%
    04:00 +15°C° 0 mm 2 mps 739 mmHg 91%
    05:00 +16°C° 0 mm 2 mps 740 mmHg 91%
    06:00 +18°C° 0.2 mm 2 mps 740 mmHg 85%
    07:00 +19°C° 0.2 mm 2 mps 740 mmHg 79%
    08:00 +21°C° 0.2 mm 2 mps 740 mmHg 73%
    09:00 +23°C° 0.5 mm 2 mps 740 mmHg 68%
    10:00 +24°C° 0.5 mm 2 mps 740 mmHg 63%
    11:00 +25°C° 0.5 mm 1 mps 740 mmHg 58%
    12:00 +25°C° 0.4 mm 1 mps 740 mmHg 57%
    13:00 +26°C° 0.4 mm 1 mps 740 mmHg 56%
    14:00 +26°C° 0.4 mm 1 mps 740 mmHg 55%
    15:00 +26°C° 0.7 mm 1 mps 740 mmHg 58%
    16:00 +25°C° 0.7 mm 1 mps 740 mmHg 61%
    17:00 +25°C° 0.7 mm 1 mps 740 mmHg 64%
    18:00 +23°C° 0.7 mm 1 mps 740 mmHg 71%
    19:00 +20°C° 0.7 mm 2 mps 740 mmHg 79%
    20:00 +18°C° 0.7 mm 3 mps 740 mmHg 87%
    21:00 +18°C° 0.2 mm 3 mps 740 mmHg 89%
    22:00 +17°C° 0.2 mm 3 mps 740 mmHg 91%
    23:00 +17°C° 0.2 mm 3 mps 740 mmHg 93%

    Mañana, 25 Mayo, Sábado

    Tiempo Temperatura Precipitaciones Viento Presión Humedad
    00:00 +16°C° 0.2 mm 3 mps 740 mmHg 94%
    01:00 +16°C° 0.2 mm 3 mps 740 mmHg 95%
    02:00 +15°C° 0.2 mm 2 mps 740 mmHg 95%
    03:00 +16°C° 0.2 mm 2 mps 740 mmHg 95%
    04:00 +16°C° 0.2 mm 2 mps 740 mmHg 94%
    05:00 +16°C° 0.2 mm 2 mps 740 mmHg 94%
    06:00 +18°C° 0.7 mm 3 mps 740 mmHg 87%
    07:00 +19°C° 0.7 mm 3 mps 740 mmHg 81%
    08:00 +21°C° 0.7 mm 4 mps 740 mmHg 74%
    09:00 +22°C° 0.9 mm 4 mps 740 mmHg 71%
    10:00 +22°C° 0.9 mm 4 mps 740 mmHg 69%
    11:00 +23°C° 0.9 mm 5 mps 740 mmHg 66%
    12:00 +23°C° 0.5 mm 5 mps 739 mmHg 65%
    13:00 +23°C° 0.5 mm 5 mps 739 mmHg 63%
    14:00 +25°C° 0.5 mm 4 mps 739 mmHg 62%
    15:00 +23°C° 0.5 mm 4 mps 739 mmHg 67%
    16:00 +24°C° 0.5 mm 3 mps 738 mmHg 71%
    17:00 +23°C° 0.5 mm 2 mps 738 mmHg 75%
    18:00 +20°C° 0.6 mm 2 mps 738 mmHg 79%
    19:00 +19°C° 0.6 mm 2 mps 738 mmHg 83%
    20:00 +17°C° 0.6 mm 2 mps 738 mmHg 87%
    21:00 +17°C° 0 mm 2 mps 738 mmHg 88%
    22:00 +16°C° 0 mm 2 mps 738 mmHg 89%
    23:00 +16°C° 0 mm 2 mps 738 mmHg 90%

    Pasado mañana, 26 Mayo, Domingo

    Tiempo Temperatura Precipitaciones Viento Presión Humedad
    00:00 +16°C° 0 mm 1 mps 737 mmHg 91%
    01:00 +16°C° 0 mm 1 mps 737 mmHg 92%
    02:00 +15°C° 0 mm 1 mps 737 mmHg 93%
    03:00 +16°C° 0 mm 1 mps 737 mmHg 92%
    04:00 +16°C° 0 mm 1 mps 736 mmHg 92%
    05:00 +16°C° 0 mm 1 mps 736 mmHg 91%
    06:00 +18°C° 0.1 mm 1 mps 736 mmHg 88%
    07:00 +19°C° 0.1 mm 1 mps 737 mmHg 85%
    08:00 +20°C° 0.1 mm 1 mps 737 mmHg 82%
    09:00 +21°C° 0.8 mm 1 mps 737 mmHg 78%
    10:00 +22°C° 0.8 mm 1 mps 737 mmHg 74%
    11:00 +21°C° 0.8 mm 2 mps 737 mmHg 70%
    12:00 +22°C° 1 mm 3 mps 737 mmHg 70%
    13:00 +22°C° 1 mm 4 mps 737 mmHg 70%
    14:00 +23°C° 1 mm 5 mps 737 mmHg 70%
    15:00 +22°C° 0.1 mm 5 mps 738 mmHg 73%
    16:00 +22°C° 0.1 mm 5 mps 738 mmHg 76%
    17:00 +21°C° 0.1 mm 5 mps 738 mmHg 79%
    18:00 +20°C° 0.1 mm 5 mps 739 mmHg 82%
    19:00 +19°C° 0.1 mm 4 mps 739 mmHg 85%
    20:00 +18°C° 0.1 mm 4 mps 739 mmHg 89%
    21:00 +17°C° 0 mm 4 mps 740 mmHg 90%
    22:00 +15°C° 0 mm 4 mps 740 mmHg 92%
    23:00 +14°C° 0 mm 3 mps 741 mmHg 93%

    27 Mayo, Lunes

    Tiempo Temperatura Precipitaciones Viento Presión Humedad
    00:00 +14°C° 0 mm 3 mps 741 mmHg 94%
    01:00 +13°C° 0 mm 3 mps 742 mmHg 94%
    02:00 +13°C° 0 mm 3 mps 742 mmHg 95%
    03:00 +13°C° 0 mm 3 mps 742 mmHg 93%
    04:00 +13°C° 0 mm 3 mps 743 mmHg 91%
    05:00 +13°C° 0 mm 3 mps 743 mmHg 90%
    06:00 +16°C° 0 mm 3 mps 744 mmHg 82%
    07:00 +18°C° 0 mm 3 mps 744 mmHg 74%
    08:00 +19°C° 0 mm 3 mps 745 mmHg 66%
    09:00 +20°C° 0 mm 4 mps 745 mmHg 64%
    10:00 +21°C° 0 mm 4 mps 745 mmHg 62%
    11:00 +22°C° 0 mm 4 mps 745 mmHg 60%
    12:00 +23°C° 0 mm 4 mps 745 mmHg 59%
    13:00 +23°C° 0 mm 4 mps 746 mmHg 59%
    14:00 +25°C° 0 mm 4 mps 746 mmHg 59%
    15:00 +23°C° 0.1 mm 4 mps 746 mmHg 63%
    16:00 +24°C° 0.1 mm 3 mps 746 mmHg 67%
    17:00 +24°C° 0.1 mm 3 mps 746 mmHg 71%
    18:00 +21°C° 0.1 mm 2 mps 746 mmHg 75%
    19:00 +20°C° 0.1 mm 2 mps 746 mmHg 80%
    20:00 +18°C° 0.1 mm 2 mps 746 mmHg 85%
    21:00 +19°C° 0 mm 1 mps 747 mmHg 86%
    22:00 +18°C° 0 mm 1 mps 747 mmHg 88%
    23:00 +18°C° 0 mm 1 mps 747 mmHg 89%

    28 Mayo, Martes

    Tiempo Temperatura Precipitaciones Viento Presión Humedad
    00:00 +18°C° 0 mm 1 mps 747 mmHg 89%
    01:00 +16°C° 0 mm 2 mps 747 mmHg 90%
    02:00 +16°C° 0 mm 2 mps 747 mmHg 90%
    03:00 +17°C° 0 mm 2 mps 748 mmHg 89%
    04:00 +17°C° 0 mm 2 mps 748 mmHg 89%
    05:00 +17°C° 0 mm 2 mps 748 mmHg 88%
    06:00 +19°C° 0 mm 2 mps 748 mmHg 83%
    07:00 +21°C° 0 mm 3 mps 748 mmHg 78%
    08:00 +24°C° 0 mm 3 mps 748 mmHg 73%
    09:00 +25°C° 0.2 mm 3 mps 748 mmHg 68%
    10:00 +26°C° 0.2 mm 4 mps 748 mmHg 64%
    11:00 +27°C° 0.2 mm 4 mps 748 mmHg 59%
    12:00 +28°C° 0.1 mm 4 mps 748 mmHg 59%
    13:00 +28°C° 0.1 mm 4 mps 748 mmHg 58%
    14:00 +28°C° 0.1 mm 4 mps 748 mmHg 58%
    15:00 +28°C° 0 mm 4 mps 748 mmHg 62%
    16:00 +28°C° 0 mm 3 mps 748 mmHg 66%
    17:00 +28°C° 0 mm 3 mps 747 mmHg 69%
    18:00 +26°C° 0 mm 2 mps 748 mmHg 72%
    19:00 +24°C° 0 mm 2 mps 748 mmHg 75%
    20:00 +21°C° 0 mm 2 mps 748 mmHg 77%
    21:00 +20°C° 0 mm 2 mps 748 mmHg 79%
    22:00 +20°C° 0 mm 2 mps 748 mmHg 80%
    23:00 +19°C° 0 mm 2 mps 748 mmHg 81%

    29 Mayo, Miércoles

    Tiempo Temperatura Precipitaciones Viento Presión Humedad
    00:00 +19°C° 0 mm 2 mps 748 mmHg 84%
    01:00 +18°C° 0 mm 2 mps 748 mmHg 87%
    02:00 +18°C° 0 mm 2 mps 748 mmHg 89%
    03:00 +18°C° 0 mm 2 mps 748 mmHg 89%
    04:00 +18°C° 0 mm 2 mps 748 mmHg 88%
    05:00 +18°C° 0 mm 2 mps 748 mmHg 88%
    06:00 +20°C° 0 mm 3 mps 748 mmHg 82%
    07:00 +22°C° 0 mm 4 mps 748 mmHg 76%
    08:00 +25°C° 0 mm 5 mps 748 mmHg 70%
    09:00 +26°C° 0 mm 5 mps 748 mmHg 67%
    10:00 +27°C° 0 mm 6 mps 748 mmHg 64%
    11:00 +28°C° 0 mm 6 mps 748 mmHg 60%
    12:00 +28°C° 0 mm 6 mps 748 mmHg 60%
    13:00 +28°C° 0 mm 6 mps 747 mmHg 59%
    14:00 +29°C° 0 mm 6 mps 747 mmHg 58%
    15:00 +29°C° 0 mm 5 mps 747 mmHg 62%
    16:00 +28°C° 0 mm 4 mps 747 mmHg 66%
    17:00 +28°C° 0 mm 3 mps 747 mmHg 70%
    18:00 +26°C° 0 mm 3 mps 747 mmHg 73%
    19:00 +25°C° 0 mm 3 mps 747 mmHg 77%
    20:00 +22°C° 0 mm 3 mps 747 mmHg 81%
    21:00 +21°C° 0 mm 3 mps 747 mmHg 81%
    22:00 +21°C° 0 mm 3 mps 747 mmHg 82%
    23:00 +20°C° 0 mm 3 mps 747 mmHg 82%
    Mostrar más